QPF
0.01 0.01 0.00 0.00 0.00 0.00 0.00 0.00 0.00 0.00 0.00 0.00 0.00 0.00 0.00 0.00 0.00 0.00 0.00 0.00 0.00 0.00 0.00 0.00 0.00 0.00 0.00 0.00 0.00 0.00 0.00 0.00 0.00 0.00 0.00 0.00 0.00 0.00 0.00 0.00 0.00 0.00 0.00 0.00
0.00 0.00 0.00 0.00 0.00 0.00 0.00 0.00 0.00 0.00 0.00 0.00 0.00 0.00 0.00 0.00 0.00 0.00 0.00 0.00 0.00 0.00 0.00 0.00 0.00 0.00 0.00 0.00 0.00 0.00 0.00 0.00 0.01 0.00 0.00 0.00 0.00 0.00 0.00 0.00 0.00 0.00 0.00 0.00
0.01 0.00 0.00 0.00 0.00 0.00 0.00 0.00 0.00 0.00 0.00 0.00 0.00 0.00 0.00 0.00 0.00 0.00 0.00 0.00 0.00 0.00 0.00 0.00 0.00 0.00 0.00 0.00 0.00 0.00 0.00 0.00 0.00 0.00 0.00 0.00 0.00 0.00 0.00 0.00 0.00 0.00 0.00 0.00
0.01 0.02 0.01 0.00 0.00 0.00 0.00 0.00 0.00 0.00 0.00 0.00 0.00 0.00 0.00 0.00 0.00 0.00 0.00 0.00 0.00 0.00 0.00 0.00 0.00 0.00 0.00 0.01 0.01 0.01 0.00 0.00 0.00 0.00 0.00 0.00 0.00 0.00 0.00 0.00 0.00 0.00 0.00 0.00
0.02 0.02 0.01 0.00 0.00 0.00 0.00 0.00 0.00 0.00 0.00 0.00 0.00 0.00 0.00 0.00 0.00 0.00 0.00 0.00 0.00 0.00 0.00 0.00 0.00 0.00 0.00 0.00 0.00 0.00 0.00 0.00 0.00 0.00 0.00 0.00 0.00 0.00 0.00 0.00 0.00 0.00 0.00 0.00
0.03 0.02 0.01 0.00 0.00 0.00 0.00 0.01 0.00 0.00 0.00 0.00 0.00 0.00 0.00 0.01 0.00 0.01 0.00 0.00 0.00 0.00 0.00 0.00 0.00 0.00 0.00 0.00 0.00 0.00 0.00 0.00 0.00 0.00 0.00 0.00 0.00 0.00 0.00 0.00 0.00 0.00 0.00 0.00
0.04 0.03 0.01 0.00 0.00 0.00 0.01 0.01 0.00 0.00 0.00 0.00 0.00 0.00 0.01 0.01 0.00 0.01 0.00 0.00 0.00 0.00 0.00 0.00 0.00 0.00 0.00 0.00 0.01 0.01 0.01 0.00 0.00 0.00 0.00 0.00 0.00 0.00 0.00 0.00 0.00 0.00 0.00 0.00
0.05 0.04 0.02 0.00 0.00 0.00 0.01 0.00 0.00 0.00 0.00 0.00 0.00 0.00 0.00 0.01 0.01 0.00 0.00 0.00 0.00 0.00 0.00 0.00 0.01 0.01 0.00 0.00 0.00 0.00 0.00 0.00 0.00 0.00 0.00 0.00 0.00 0.00 0.00 0.00 0.00 0.00 0.00 0.00
0.03 0.02 0.01 0.00 0.00 0.00 0.00 0.00 0.00 0.00 0.00 0.00 0.00 0.00 0.01 0.01 0.00 0.00 0.00 0.00 0.01 0.01 0.02 0.01 0.01 0.01 0.01 0.00 0.00 0.00 0.00 0.00 0.00 0.00 0.00 0.00 0.00 0.00 0.00 0.00 0.00 0.00 0.00 0.00
0.02 0.01 0.00 0.00 0.00 0.00 0.00 0.00 0.01 0.01 0.00 0.00 0.00 0.01 0.01 0.01 0.01 0.01 0.01 0.01 0.01 0.01 0.01 0.01 0.00 0.00 0.01 0.01 0.01 0.01 0.01 0.01 0.01 0.01 0.01 0.00 0.00 0.00 0.00 0.00 0.00 0.00 0.00 0.00
0.03 0.02 0.01 0.01 0.01 0.01 0.01 0.02 0.02 0.01 0.01 0.01 0.01 0.01 0.01 0.01 0.01 0.01 0.01 0.01 0.01 0.01 0.01 0.01 0.01 0.01 0.01 0.01 0.01 0.01 0.01 0.01 0.01 0.01 0.01 0.00 0.00 0.00 0.00 0.00 0.00 0.00 0.00 0.00
0.03 0.02 0.02 0.02 0.01 0.01 0.02 0.02 0.01 0.01 0.01 0.01 0.02 0.02 0.02 0.01 0.01 0.01 0.01 0.01 0.01 0.01 0.01 0.01 0.01 0.00 0.01 0.01 0.01 0.01 0.00 0.00 0.01 0.01 0.00 0.00 0.00 0.00 0.00 0.00 0.00 0.00 0.00 0.00
0.02 0.02 0.02 0.02 0.02 0.02 0.02 0.02 0.01 0.01 0.01 0.02 0.02 0.02 0.02 0.02 0.02 0.02 0.01 0.01 0.01 0.01 0.00 0.00 0.00 0.00 0.00 0.00 0.01 0.00 0.00 0.00 0.01 0.00 0.00 0.00 0.00 0.00 0.00 0.00 0.00 0.00 0.00 0.00
0.02 0.02 0.03 0.03 0.02 0.02 0.02 0.02 0.02 0.02 0.02 0.02 0.02 0.02 0.02 0.02 0.01 0.01 0.01 0.01 0.01 0.01 0.01 0.00 0.00 0.01 0.01 0.01 0.01 0.01 0.01 0.01 0.01 0.01 0.01 0.00 0.00 0.00 0.00 0.00 0.00 0.00 0.00 0.00
0.01 0.03 0.05 0.05 0.04 0.03 0.03 0.02 0.02 0.02 0.02 0.02 0.02 0.02 0.02 0.02 0.02 0.01 0.02 0.02 0.01 0.01 0.01 0.01 0.00 0.01 0.01 0.01 0.01 0.01 0.01 0.01 0.01 0.00 0.00 0.00 0.00 0.00 0.00 0.00 0.00 0.00 0.00 0.00
0.01 0.03 0.05 0.05 0.04 0.03 0.02 0.02 0.01 0.01 0.02 0.03 0.03 0.03 0.02 0.02 0.02 0.01 0.02 0.02 0.02 0.02 0.02 0.01 0.01 0.02 0.01 0.01 0.01 0.01 0.00 0.00 0.00 0.00 0.00 0.00 0.00 0.00 0.00 0.00 0.01 0.00 0.00 0.00
0.03 0.03 0.03 0.03 0.03 0.03 0.02 0.01 0.01 0.01 0.02 0.03 0.03 0.02 0.02 0.02 0.02 0.02 0.02 0.02 0.02 0.02 0.01 0.01 0.01 0.01 0.01 0.01 0.01 0.01 0.01 0.00 0.00 0.00 0.00 0.00 0.00 0.00 0.00 0.00 0.00 0.00 0.00 0.00
0.03 0.02 0.01 0.02 0.02 0.02 0.02 0.01 0.01 0.01 0.02 0.02 0.02 0.02 0.01 0.02 0.02 0.02 0.02 0.01 0.01 0.01 0.01 0.01 0.01 0.01 0.01 0.00 0.00 0.00 0.00 0.00 0.00 0.00 0.00 0.00 0.00 0.00 0.00 0.00 0.00 0.00 0.00 0.00
0.02 0.02 0.01 0.01 0.01 0.02 0.01 0.01 0.01 0.02 0.02 0.02 0.02 0.02 0.01 0.01 0.01 0.01 0.01 0.01 0.01 0.01 0.01 0.01 0.01 0.01 0.00 0.00 0.00 0.00 0.00 0.00 0.00 0.00 0.00 0.00 0.00 0.00 0.01 0.01 0.00 0.00 0.00 0.00
0.02 0.02 0.02 0.02 0.02 0.02 0.02 0.02 0.02 0.02 0.02 0.02 0.02 0.01 0.01 0.01 0.01 0.01 0.01 0.00 0.00 0.00 0.01 0.00 0.00 0.00 0.00 0.00 0.00 0.00 0.00 0.00 0.00 0.00 0.00 0.00 0.00 0.00 0.00 0.00 0.00 0.00 0.00 0.01
0.02 0.02 0.03 0.02 0.02 0.02 0.02 0.02 0.03 0.03 0.02 0.01 0.01 0.01 0.00 0.00 0.00 0.01 0.00 0.00 0.00 0.00 0.00 0.00 0.00 0.00 0.00 0.00 0.00 0.00 0.00 0.00 0.00 0.00 0.00 0.00 0.00 0.00 0.00 0.00 0.00 0.00 0.01 0.01
0.03 0.03 0.02 0.02 0.03 0.02 0.02 0.01 0.02 0.02 0.02 0.01 0.01 0.01 0.00 0.00 0.00 0.00 0.00 0.00 0.00 0.00 0.00 0.00 0.00 0.00 0.00 0.00 0.00 0.00 0.00 0.00 0.00 0.00 0.00 0.00 0.01 0.01 0.01 0.01 0.01 0.01 0.01 0.02
0.02 0.01 0.01 0.01 0.01 0.01 0.01 0.02 0.03 0.03 0.02 0.01 0.01 0.01 0.01 0.01 0.01 0.00 0.00 0.00 0.00 0.00 0.00 0.00 0.00 0.00 0.00 0.00 0.00 0.00 0.00 0.00 0.00 0.00 0.00 0.01 0.01 0.01 0.00 0.00 0.01 0.01 0.01 0.01
0.02 0.01 0.01 0.02 0.02 0.02 0.02 0.02 0.03 0.03 0.03 0.02 0.01 0.01 0.01 0.01 0.01 0.01 0.01 0.01 0.00 0.00 0.00 0.00 0.00 0.00 0.00 0.00 0.00 0.00 0.00 0.00 0.00 0.00 0.00 0.00 0.00 0.00 0.00 0.00 0.00 0.01 0.01 0.01
0.02 0.01 0.02 0.02 0.02 0.02 0.02 0.03 0.03 0.03 0.03 0.03 0.02 0.01 0.00 0.00 0.01 0.01 0.02 0.02 0.02 0.01 0.01 0.01 0.01 0.01 0.00 0.00 0.00 0.00 0.00 0.01 0.01 0.01 0.01 0.00 0.00 0.00 0.00 0.00 0.01 0.01 0.01 0.02
0.04 0.04 0.03 0.03 0.02 0.02 0.02 0.02 0.02 0.02 0.02 0.03 0.03 0.02 0.01 0.01 0.01 0.00 0.00 0.01 0.01 0.01 0.02 0.02 0.01 0.01 0.01 0.00 0.00 0.00 0.01 0.01 0.01 0.01 0.01 0.00 0.00 0.01 0.01 0.02 0.02 0.01 0.01 0.01
0.04 0.03 0.03 0.03 0.02 0.01 0.01 0.01 0.01 0.02 0.02 0.01 0.01 0.01 0.01 0.01 0.01 0.01 0.01 0.01 0.00 0.01 0.01 0.01 0.01 0.01 0.00 0.00 0.00 0.01 0.00 0.00 0.00 0.00 0.00 0.01 0.01 0.02 0.03 0.02 0.01 0.01 0.01 0.01
MSLP
1008.56 1008.65 1008.74 1008.81 1008.83 1008.79 1008.67 1008.47 1008.21 1007.89 1007.57 1007.27 1007.04 1006.92 1006.92 1007.06 1007.33 1007.71 1008.19 1008.74 1009.35 1009.99 1010.66 1011.36 1012.08 1012.83 1013.58 1014.34 1015.08 1015.78 1016.42 1016.98 1017.46 1017.85 1018.16 1018.41 1018.62 1018.80 1018.97 1019.13 1019.28 1019.41 1019.51 1019.57
1008.43 1008.45 1008.45 1008.42 1008.34 1008.20 1007.99 1007.72 1007.41 1007.07 1006.74 1006.46 1006.26 1006.17 1006.20 1006.35 1006.63 1007.02 1007.50 1008.06 1008.68 1009.34 1010.05 1010.79 1011.56 1012.35 1013.15 1013.94 1014.70 1015.40 1016.03 1016.58 1017.04 1017.42 1017.72 1017.98 1018.19 1018.40 1018.59 1018.78 1018.95 1019.11 1019.22 1019.30
1008.29 1008.25 1008.18 1008.08 1007.92 1007.70 1007.43 1007.11 1006.76 1006.40 1006.08 1005.81 1005.64 1005.56 1005.61 1005.77 1006.05 1006.43 1006.90 1007.44 1008.06 1008.72 1009.44 1010.20 1011.00 1011.83 1012.66 1013.47 1014.24 1014.96 1015.59 1016.13 1016.59 1016.96 1017.26 1017.51 1017.73 1017.94 1018.15 1018.35 1018.54 1018.70 1018.83 1018.91
1008.12 1008.03 1007.91 1007.76 1007.55 1007.29 1006.98 1006.63 1006.26 1005.90 1005.59 1005.34 1005.18 1005.12 1005.17 1005.33 1005.59 1005.95 1006.39 1006.91 1007.49 1008.14 1008.85 1009.61 1010.42 1011.26 1012.11 1012.94 1013.73 1014.46 1015.10 1015.65 1016.11 1016.48 1016.78 1017.03 1017.25 1017.46 1017.66 1017.86 1018.04 1018.20 1018.33 1018.40
1007.87 1007.75 1007.61 1007.43 1007.21 1006.93 1006.61 1006.25 1005.89 1005.55 1005.25 1005.01 1004.86 1004.82 1004.87 1005.01 1005.25 1005.58 1005.98 1006.45 1007.00 1007.61 1008.30 1009.04 1009.84 1010.68 1011.54 1012.38 1013.19 1013.94 1014.59 1015.16 1015.62 1016.00 1016.30 1016.54 1016.75 1016.95 1017.13 1017.31 1017.47 1017.61 1017.73 1017.80
1007.53 1007.40 1007.25 1007.07 1006.85 1006.58 1006.28 1005.94 1005.61 1005.29 1005.01 1004.80 1004.67 1004.63 1004.67 1004.80 1005.02 1005.31 1005.66 1006.09 1006.59 1007.16 1007.81 1008.53 1009.31 1010.14 1010.99 1011.84 1012.66 1013.42 1014.09 1014.67 1015.15 1015.53 1015.83 1016.06 1016.26 1016.42 1016.58 1016.72 1016.86 1016.97 1017.07 1017.13
1007.10 1006.96 1006.82 1006.66 1006.46 1006.23 1005.96 1005.67 1005.37 1005.09 1004.85 1004.67 1004.55 1004.52 1004.56 1004.68 1004.87 1005.12 1005.44 1005.83 1006.28 1006.81 1007.41 1008.10 1008.85 1009.66 1010.50 1011.34 1012.16 1012.92 1013.61 1014.20 1014.68 1015.07 1015.36 1015.58 1015.75 1015.89 1016.01 1016.11 1016.21 1016.30 1016.37 1016.43
1006.61 1006.47 1006.34 1006.20 1006.04 1005.86 1005.64 1005.41 1005.16 1004.93 1004.73 1004.58 1004.49 1004.47 1004.51 1004.62 1004.79 1005.02 1005.30 1005.65 1006.06 1006.55 1007.11 1007.76 1008.47 1009.25 1010.07 1010.89 1011.70 1012.46 1013.14 1013.73 1014.21 1014.59 1014.88 1015.08 1015.23 1015.33 1015.41 1015.48 1015.54 1015.60 1015.66 1015.71
1006.10 1005.96 1005.85 1005.75 1005.63 1005.50 1005.35 1005.17 1004.99 1004.81 1004.66 1004.54 1004.47 1004.46 1004.50 1004.60 1004.76 1004.97 1005.23 1005.54 1005.92 1006.37 1006.90 1007.50 1008.18 1008.92 1009.69 1010.49 1011.27 1012.01 1012.67 1013.24 1013.72 1014.08 1014.35 1014.53 1014.65 1014.73 1014.78 1014.82 1014.86 1014.90 1014.95 1015.01
1005.63 1005.50 1005.41 1005.34 1005.28 1005.20 1005.11 1005.00 1004.87 1004.74 1004.62 1004.53 1004.49 1004.48 1004.53 1004.63 1004.77 1004.96 1005.20 1005.49 1005.85 1006.26 1006.75 1007.31 1007.94 1008.63 1009.36 1010.10 1010.84 1011.54 1012.17 1012.71 1013.16 1013.51 1013.75 1013.92 1014.01 1014.07 1014.10 1014.12 1014.14 1014.18 1014.24 1014.31
1005.24 1005.13 1005.07 1005.04 1005.03 1005.01 1004.97 1004.91 1004.84 1004.75 1004.67 1004.60 1004.56 1004.56 1004.61 1004.69 1004.83 1005.01 1005.23 1005.50 1005.83 1006.21 1006.66 1007.17 1007.74 1008.37 1009.03 1009.72 1010.39 1011.03 1011.62 1012.12 1012.53 1012.85 1013.07 1013.22 1013.30 1013.34 1013.35 1013.37 1013.39 1013.44 1013.51 1013.59
1004.97 1004.88 1004.86 1004.88 1004.92 1004.95 1004.96 1004.95 1004.92 1004.87 1004.81 1004.75 1004.72 1004.72 1004.75 1004.83 1004.95 1005.12 1005.32 1005.57 1005.87 1006.22 1006.62 1007.08 1007.59 1008.14 1008.73 1009.34 1009.94 1010.51 1011.03 1011.48 1011.85 1012.13 1012.33 1012.45 1012.52 1012.55 1012.56 1012.58 1012.61 1012.67 1012.75 1012.85
1004.81 1004.77 1004.79 1004.86 1004.95 1005.04 1005.10 1005.13 1005.13 1005.11 1005.06 1005.02 1004.98 1004.98 1005.00 1005.07 1005.17 1005.32 1005.51 1005.74 1006.01 1006.32 1006.67 1007.07 1007.50 1007.98 1008.48 1009.00 1009.51 1010.00 1010.44 1010.83 1011.15 1011.39 1011.56 1011.66 1011.72 1011.74 1011.76 1011.77 1011.81 1011.87 1011.95 1012.06
1004.74 1004.76 1004.85 1004.98 1005.12 1005.26 1005.37 1005.44 1005.47 1005.47 1005.44 1005.40 1005.37 1005.36 1005.38 1005.43 1005.53 1005.66 1005.84 1006.04 1006.28 1006.55 1006.85 1007.18 1007.54 1007.93 1008.33 1008.75 1009.16 1009.56 1009.92 1010.23 1010.49 1010.69 1010.82 1010.91 1010.95 1010.96 1010.97 1010.98 1011.00 1011.06 1011.14 1011.24
1004.75 1004.85 1005.01 1005.20 1005.41 1005.60 1005.75 1005.86 1005.92 1005.94 1005.93 1005.90 1005.88 1005.87 1005.90 1005.95 1006.05 1006.18 1006.34 1006.53 1006.75 1006.98 1007.22 1007.48 1007.76 1008.05 1008.35 1008.66 1008.96 1009.25 1009.52 1009.76 1009.95 1010.09 1010.18 1010.23 1010.25 1010.24 1010.23 1010.22 1010.23 1010.26 1010.31 1010.38
1004.86 1005.04 1005.26 1005.52 1005.78 1006.02 1006.21 1006.36 1006.45 1006.50 1006.52 1006.51 1006.51 1006.53 1006.57 1006.64 1006.75 1006.89 1007.05 1007.23 1007.42 1007.61 1007.80 1008.00 1008.18 1008.38 1008.57 1008.76 1008.95 1009.13 1009.30 1009.44 1009.55 1009.63 1009.67 1009.68 1009.66 1009.62 1009.57 1009.53 1009.50 1009.49 1009.50 1009.53
1005.08 1005.33 1005.62 1005.92 1006.23 1006.50 1006.74 1006.92 1007.04 1007.12 1007.17 1007.21 1007.24 1007.29 1007.37 1007.48 1007.61 1007.77 1007.95 1008.13 1008.30 1008.46 1008.60 1008.72 1008.82 1008.91 1008.99 1009.07 1009.13 1009.20 1009.25 1009.29 1009.31 1009.31 1009.29 1009.24 1009.17 1009.09 1009.00 1008.92 1008.85 1008.79 1008.75 1008.71
1005.46 1005.75 1006.08 1006.41 1006.74 1007.04 1007.29 1007.50 1007.66 1007.78 1007.87 1007.95 1008.03 1008.13 1008.26 1008.41 1008.59 1008.78 1008.98 1009.16 1009.32 1009.45 1009.54 1009.59 1009.61 1009.60 1009.56 1009.52 1009.46 1009.40 1009.34 1009.27 1009.19 1009.11 1009.01 1008.90 1008.78 1008.65 1008.52 1008.40 1008.28 1008.17 1008.07 1007.98
1006.02 1006.33 1006.65 1006.99 1007.31 1007.61 1007.87 1008.09 1008.27 1008.42 1008.55 1008.68 1008.82 1008.98 1009.16 1009.37 1009.59 1009.82 1010.04 1010.23 1010.38 1010.48 1010.52 1010.51 1010.44 1010.33 1010.19 1010.02 1009.84 1009.66 1009.48 1009.30 1009.12 1008.95 1008.78 1008.62 1008.45 1008.28 1008.11 1007.95 1007.79 1007.65 1007.51 1007.37
1006.77 1007.04 1007.34 1007.64 1007.92 1008.19 1008.44 1008.65 1008.84 1009.02 1009.18 1009.36 1009.55 1009.76 1009.99 1010.25 1010.51 1010.77 1011.01 1011.20 1011.34 1011.41 1011.41 1011.33 1011.19 1010.99 1010.74 1010.46 1010.17 1009.87 1009.58 1009.30 1009.03 1008.78 1008.55 1008.33 1008.13 1007.93 1007.75 1007.57 1007.40 1007.24 1007.09 1006.93
1007.65 1007.86 1008.08 1008.31 1008.54 1008.76 1008.96 1009.16 1009.34 1009.52 1009.71 1009.92 1010.14 1010.40 1010.67 1010.96 1011.25 1011.52 1011.76 1011.95 1012.07 1012.11 1012.07 1011.93 1011.72 1011.44 1011.11 1010.74 1010.34 1009.95 1009.57 1009.20 1008.86 1008.56 1008.28 1008.03 1007.81 1007.61 1007.43 1007.27 1007.12 1006.97 1006.83 1006.67
1008.57 1008.69 1008.82 1008.96 1009.11 1009.26 1009.41 1009.57 1009.73 1009.90 1010.10 1010.32 1010.56 1010.83 1011.12 1011.43 1011.72 1011.99 1012.23 1012.40 1012.49 1012.50 1012.41 1012.23 1011.96 1011.62 1011.22 1010.78 1010.32 1009.86 1009.41 1008.99 1008.61 1008.26 1007.97 1007.72 1007.51 1007.33 1007.19 1007.07 1006.96 1006.85 1006.74 1006.61
1009.41 1009.43 1009.46 1009.51 1009.57 1009.64 1009.74 1009.85 1009.98 1010.14 1010.32 1010.54 1010.78 1011.05 1011.33 1011.62 1011.89 1012.15 1012.35 1012.49 1012.55 1012.52 1012.40 1012.19 1011.89 1011.51 1011.08 1010.60 1010.11 1009.61 1009.14 1008.70 1008.30 1007.95 1007.66 1007.43 1007.26 1007.13 1007.04 1006.98 1006.93 1006.88 1006.82 1006.73
1010.08 1010.01 1009.94 1009.90 1009.88 1009.89 1009.93 1010.00 1010.10 1010.23 1010.39 1010.59 1010.81 1011.05 1011.30 1011.55 1011.79 1012.00 1012.16 1012.26 1012.29 1012.23 1012.09 1011.86 1011.54 1011.16 1010.73 1010.25 1009.76 1009.28 1008.81 1008.38 1008.00 1007.68 1007.43 1007.24 1007.12 1007.05 1007.03 1007.03 1007.05 1007.07 1007.05 1007.00
1010.52 1010.37 1010.23 1010.13 1010.05 1010.01 1010.01 1010.04 1010.11 1010.21 1010.35 1010.51 1010.69 1010.89 1011.09 1011.29 1011.47 1011.62 1011.73 1011.79 1011.78 1011.70 1011.55 1011.32 1011.02 1010.67 1010.27 1009.83 1009.39 1008.94 1008.52 1008.14 1007.81 1007.55 1007.35 1007.22 1007.15 1007.14 1007.18 1007.24 1007.31 1007.38 1007.40 1007.38
1010.72 1010.53 1010.36 1010.22 1010.11 1010.05 1010.02 1010.03 1010.08 1010.15 1010.25 1010.37 1010.50 1010.65 1010.79 1010.92 1011.03 1011.12 1011.18 1011.19 1011.15 1011.06 1010.91 1010.71 1010.45 1010.15 1009.81 1009.45 1009.08 1008.72 1008.38 1008.07 1007.81 1007.61 1007.47 1007.40 1007.39 1007.43 1007.50 1007.60 1007.70 1007.79 1007.82 1007.80
1010.78 1010.58 1010.40 1010.25 1010.14 1010.07 1010.04 1010.03 1010.06 1010.11 1010.18 1010.25 1010.33 1010.41 1010.49 1010.55 1010.59 1010.62 1010.62 1010.60 1010.54 1010.45 1010.32 1010.15 1009.95 1009.73 1009.48 1009.21 1008.94 1008.68 1008.43 1008.22 1008.04 1007.91 1007.84 1007.81 1007.84 1007.90 1007.99 1008.09 1008.18 1008.25 1008.26 1008.20
Thickness
5757 5763 5763 5762 5761 5760 5755 5759 5756 5762 5767 5774 5778 5778 5778 5777 5773 5769 5764 5761 5759 5756 5753 5750 5746 5743 5740 5736 5732 5728 5722 5718 5714 5711 5707 5703 5699 5695 5691 5688 5685 5680 5677 5674
5745 5755 5757 5754 5760 5761 5759 5761 5761 5763 5767 5785 5786 5783 5779 5777 5773 5769 5766 5764 5762 5758 5754 5750 5747 5744 5740 5736 5732 5727 5722 5718 5714 5710 5706 5701 5697 5693 5689 5685 5682 5678 5674 5671
5735 5747 5745 5740 5757 5760 5761 5766 5764 5759 5770 5780 5777 5775 5776 5777 5776 5774 5772 5768 5764 5761 5757 5753 5750 5746 5741 5737 5732 5726 5722 5718 5714 5709 5704 5700 5696 5692 5687 5683 5679 5675 5672 5669
5733 5731 5716 5751 5773 5770 5764 5767 5771 5771 5775 5776 5776 5779 5782 5783 5780 5777 5776 5773 5769 5765 5761 5757 5753 5747 5742 5737 5731 5725 5721 5717 5713 5708 5703 5699 5694 5690 5685 5681 5677 5673 5670 5667
5726 5722 5732 5752 5760 5761 5755 5756 5769 5767 5770 5773 5777 5777 5779 5783 5784 5781 5780 5778 5775 5770 5766 5759 5753 5748 5741 5735 5730 5724 5720 5716 5712 5707 5702 5697 5692 5687 5683 5678 5674 5671 5668 5664
5721 5716 5718 5742 5759 5764 5755 5745 5764 5766 5765 5767 5768 5765 5772 5779 5781 5780 5779 5778 5774 5770 5765 5757 5752 5746 5739 5733 5728 5724 5721 5716 5711 5705 5700 5695 5690 5685 5681 5676 5672 5668 5666 5662
5716 5717 5732 5748 5755 5755 5734 5739 5757 5761 5762 5763 5762 5766 5772 5776 5776 5776 5774 5772 5770 5765 5760 5754 5749 5742 5735 5732 5727 5725 5720 5714 5708 5703 5697 5693 5687 5682 5678 5673 5669 5665 5662 5659
5713 5709 5719 5743 5746 5739 5739 5749 5753 5756 5759 5759 5761 5764 5768 5769 5769 5769 5768 5766 5764 5758 5754 5750 5745 5739 5733 5729 5728 5723 5717 5710 5704 5699 5695 5691 5684 5679 5675 5670 5665 5661 5657 5654
5716 5718 5728 5738 5737 5740 5743 5743 5748 5751 5754 5755 5756 5757 5759 5760 5761 5762 5761 5760 5758 5753 5748 5744 5740 5736 5730 5727 5723 5717 5711 5705 5700 5695 5690 5686 5681 5676 5671 5666 5663 5661 5657 5654
5712 5722 5726 5730 5733 5735 5738 5739 5744 5747 5749 5750 5750 5751 5752 5753 5753 5753 5752 5752 5750 5747 5742 5736 5734 5730 5727 5723 5718 5711 5705 5699 5695 5690 5686 5681 5677 5674 5670 5666 5661 5658 5654 5650
5706 5714 5720 5723 5724 5727 5731 5735 5738 5741 5743 5743 5744 5744 5744 5743 5743 5744 5743 5742 5741 5738 5734 5730 5727 5723 5720 5716 5711 5705 5699 5695 5691 5687 5683 5678 5674 5671 5667 5662 5658 5651 5649 5645
5698 5705 5707 5709 5716 5720 5722 5725 5728 5731 5732 5735 5736 5736 5736 5735 5735 5734 5733 5733 5731 5729 5726 5722 5719 5715 5713 5709 5704 5698 5693 5689 5687 5683 5678 5674 5670 5665 5659 5653 5648 5642 5636 5631
5696 5701 5702 5704 5709 5713 5714 5717 5720 5722 5723 5724 5727 5728 5727 5726 5725 5724 5723 5721 5720 5720 5718 5714 5711 5708 5705 5701 5696 5692 5688 5684 5681 5677 5673 5668 5664 5659 5654 5648 5640 5635 5630 5624
5690 5691 5692 5696 5699 5703 5707 5710 5712 5713 5714 5715 5715 5716 5716 5715 5714 5713 5713 5713 5711 5710 5707 5704 5702 5699 5696 5692 5687 5683 5679 5674 5671 5667 5665 5661 5657 5653 5648 5644 5640 5637 5629 5620
5682 5685 5686 5689 5691 5694 5697 5700 5701 5701 5702 5702 5704 5703 5702 5701 5700 5701 5702 5702 5700 5698 5696 5693 5690 5687 5685 5682 5677 5673 5671 5668 5663 5661 5657 5654 5650 5646 5642 5637 5633 5630 5627 5620
5674 5678 5679 5680 5681 5684 5687 5688 5689 5688 5690 5690 5690 5690 5690 5690 5690 5690 5689 5689 5687 5685 5683 5680 5677 5676 5675 5672 5667 5664 5661 5655 5652 5652 5649 5646 5642 5637 5633 5628 5624 5620 5617 5613
5666 5667 5669 5669 5671 5673 5675 5677 5678 5678 5679 5680 5679 5679 5679 5678 5677 5675 5675 5675 5674 5673 5671 5668 5666 5665 5663 5661 5658 5657 5654 5648 5640 5641 5640 5636 5631 5627 5623 5619 5615 5612 5608 5603
5659 5660 5661 5661 5662 5663 5664 5666 5667 5667 5668 5668 5669 5668 5666 5664 5662 5661 5661 5661 5660 5659 5658 5656 5654 5653 5651 5649 5647 5646 5642 5639 5634 5631 5628 5624 5619 5615 5612 5609 5605 5601 5598 5593
5649 5649 5650 5651 5652 5652 5652 5653 5654 5656 5656 5657 5656 5654 5653 5652 5651 5650 5649 5648 5647 5646 5644 5643 5639 5640 5638 5635 5632 5630 5629 5626 5623 5619 5616 5609 5607 5605 5602 5598 5594 5590 5586 5582
5636 5638 5639 5640 5641 5641 5640 5641 5642 5643 5643 5644 5644 5642 5641 5640 5639 5638 5637 5636 5636 5635 5633 5631 5630 5628 5625 5622 5618 5620 5618 5614 5611 5607 5604 5601 5597 5593 5590 5587 5583 5579 5575 5571
5625 5626 5627 5628 5628 5629 5630 5630 5631 5630 5631 5632 5631 5629 5629 5628 5628 5628 5627 5625 5622 5621 5620 5617 5618 5616 5613 5609 5606 5608 5605 5602 5599 5595 5592 5588 5585 5581 5578 5574 5570 5566 5562 5558
5615 5616 5616 5616 5617 5616 5618 5619 5619 5619 5619 5618 5618 5618 5617 5616 5616 5615 5614 5612 5611 5606 5609 5609 5607 5600 5598 5594 5597 5595 5592 5589 5586 5583 5579 5576 5572 5569 5565 5561 5557 5553 5550 5546
5604 5605 5606 5606 5606 5606 5606 5607 5607 5607 5606 5605 5604 5604 5603 5602 5604 5603 5600 5599 5599 5594 5595 5595 5588 5583 5580 5584 5585 5582 5579 5576 5572 5569 5566 5562 5559 5555 5552 5548 5545 5540 5537 5534
5593 5594 5594 5596 5597 5596 5595 5595 5595 5595 5595 5594 5593 5591 5590 5591 5591 5591 5589 5583 5581 5579 5581 5576 5571 5569 5566 5571 5570 5568 5565 5562 5559 5556 5552 5549 5546 5543 5539 5535 5532 5528 5524 5520
5581 5582 5583 5584 5585 5585 5584 5584 5585 5584 5584 5583 5582 5581 5581 5579 5578 5577 5575 5573 5568 5567 5568 5564 5559 5557 5557 5559 5557 5554 5551 5548 5545 5541 5539 5536 5533 5530 5526 5523 5519 5515 5512 5509
5570 5572 5571 5570 5571 5572 5575 5575 5576 5575 5574 5572 5571 5570 5569 5567 5565 5564 5562 5561 5559 5556 5556 5555 5552 5548 5548 5546 5544 5541 5538 5534 5533 5530 5527 5523 5520 5516 5513 5509 5505 5503 5500 5498
5561 5561 5560 5561 5562 5561 5562 5562 5562 5561 5560 5558 5557 5557 5556 5554 5553 5551 5550 5549 5548 5547 5545 5542 5540 5538 5536 5534 5531 5527 5524 5522 5519 5517 5514 5511 5507 5504 5500 5497 5494 5492 5490 5488